Home > Weather > Montreal > Past weeks

Flag for Canada Past Weather in Montreal, Quebec, Canada — Yesterday and Last 2 Weeks

Now
66 °F

Sprinkles. Mostly cloudy.


Feels Like: 66 °F
Forecast: 65 / 73 °F
Wind: 6 mph from Northwest

Location: Montreal - Pierre Elliot Trudeau International Aiport

Current Time: Jun 28, 2016 at 11:57:26 PM

Latest Report: Jun 28, 2016 at 11:00 PM


Visibility: 8 mi

Pressure: 29.86 "Hg

Humidity: 94%

Dew Point: 64 °F

Location of MontrealLocation

Past Weather in Montreal — Graph

°F

Montreal Temperature Yesterday

Maximum temperature yesterday: 82 °F (at 6:00 PM)
Minimum temperature yesterday: 70 °F (at 8:00 AM)
Average temperature yesterday: 76 °F

High & Low Weather Summary for the Past Weeks

 TemperatureHumidityPressure
High90 °F (Jun 20, 1:00 PM)94% (Jun 27, 11:00 AM)30.20 "Hg (Jun 27, 11:00 AM)
Low52 °F (Jun 14, 3:00 AM)24% (Jun 18, 3:00 PM)29.59 "Hg (Jun 20, 11:00 PM)
Average72 °F55%29.93 "Hg
* Reported Jun 13 10:00 PM — Jun 28 10:00 PM, Montreal, Weather by CustomWeather, © 2016

Note: Actual official high and low records may vary slightly from our data, if they occured in-between our weather recording intervals... More about our weather records

Advertising

Montreal Weather History for the Previous 24 Hours

Scroll right to see more
 ConditionsComfort  
Time TempWeatherWind HumidityBarometerVisibility
10:00 PM
Tue, Jun 28
68 °FSprinkles. Mostly cloudy.10 mph94%29.88 "Hg6 mi
9:00 PM70 °FMostly cloudy.8 mph88%29.86 "Hg15 mi
8:00 PM70 °FPartly sunny.10 mph88%29.83 "Hg15 mi
7:00 PM70 °FSprinkles. More clouds than sun.12 mph88%29.85 "Hg12 mi
6:00 PM75 °FOvercast.8 mph74%29.84 "Hg15 mi
5:00 PM77 °FPartly sunny.6 mph61%29.83 "Hg15 mi
4:00 PM77 °FScattered clouds.7 mph61%29.83 "Hg15 mi
3:00 PM72 °FThunderstorms. Mostly cloudy.29 mph83%29.85 "Hg15 mi
2:00 PM81 °FOvercast.No wind45%29.83 "Hg15 mi
1:00 PM81 °FBroken clouds.2 mph54%29.84 "Hg15 mi
12:00 PM81 °FPartly sunny.7 mph58%29.86 "Hg15 mi
11:00 AM79 °FPartly sunny.9 mph61%29.87 "Hg15 mi
10:00 AM75 °FBroken clouds.7 mph65%29.87 "Hg15 mi
9:00 AM73 °FPartly sunny.5 mph78%29.86 "Hg15 mi
8:00 AM70 °FMostly cloudy.6 mph88%29.85 "Hg15 mi
7:45 AM70 °FMostly cloudy.8 mph88%29.85 "Hg15 mi
7:00 AM70 °FSprinkles. More clouds than sun.2 mph88%29.83 "Hg15 mi
6:00 AM72 °FMostly cloudy.6 mph83%29.83 "Hg15 mi
5:00 AM73 °FMostly cloudy.9 mph78%29.82 "Hg15 mi
4:00 AM73 °FMostly cloudy.7 mph78%29.82 "Hg15 mi
3:00 AM73 °FSprinkles. Mostly cloudy.12 mph78%29.81 "Hg15 mi
2:00 AM75 °FMostly cloudy.10 mph74%29.81 "Hg15 mi
1:00 AM73 °FPassing clouds.10 mph74%29.80 "Hg15 mi
12:00 AM73 °FPassing clouds.9 mph78%29.80 "Hg15 mi
11:00 PM
Mon, Jun 27
75 °FPassing clouds.14 mph74%29.80 "Hg15 mi
Weather by CustomWeather, © 2016

See weather overviewHow to use our weather pages